Stations météo

réclame
Mon MeteoGroup
Bari Palese, Italie (16270): Température de l'air & dewpoint: 13.06.2018 22:00:00 - 19.06.2018 22:00:00 (CEST)Bari Palese, Italie (16270): Vitesse du vent: 13.06.2018 22:00:00 - 19.06.2018 22:00:00 (CEST)Bari Palese, Italie (16270): Direction du vent: 13.06.2018 22:00:00 - 19.06.2018 22:00:00 (CEST)Bari Palese, Italie (16270): reduced air pressure: 13.06.2018 22:00:00 - 19.06.2018 22:00:00 (CEST)Bari Palese, Italie (16270): visibility: 13.06.2018 22:00:00 - 19.06.2018 22:00:00 (CEST)Bari Palese, Italie (16270): Quantités de précipitations: 13.06.2018 22:00:00 - 19.06.2018 22:00:00 (CEST)
Date & Time tt [°C] td [°C] ff [km/h] ff [knt] dd ppp [hPa] vv [km] rr [mm]
19.06.2018 22:00:00 - - - - - - - -
19.06.2018 21:00:00 - - - - - - - -
19.06.2018 20:00:00 24,5 19,8 18 10 N 1015,6 20 0,0
19.06.2018 19:00:00 - - - - - - - -
19.06.2018 18:00:00 - - - - - - - -
19.06.2018 17:00:00 26,2 18,8 21 11 N 1014,8 20 -
19.06.2018 16:00:00 - - - - - - - -
19.06.2018 15:00:00 - - - - - - - -
19.06.2018 14:00:00 26,7 17,5 24 13 N 1015,2 14 0,0
19.06.2018 13:00:00 - - - - - - - -
19.06.2018 12:00:00 - - - - - - - -
19.06.2018 11:00:00 25,6 19,8 24 13 N 1015,2 14 -
19.06.2018 10:00:00 - - - - - - - -
19.06.2018 09:00:00 - - - - - - - -
19.06.2018 08:00:00 24,3 19,9 16 9 NNW 1014,4 14 0,0
19.06.2018 07:00:00 - - - - - - - -
19.06.2018 06:00:00 - - - - - - - -
19.06.2018 05:00:00 21,2 18,0 13 7 NW 1012,9 14 -
19.06.2018 04:00:00 - - - - - - - -
19.06.2018 03:00:00 - - - - - - - -
19.06.2018 02:00:00 22,2 16,7 16 9 WNW 1012,4 15 0,0
19.06.2018 01:00:00 - - - - - - - -
19.06.2018 00:00:00 - - - - - - - -
18.06.2018 23:00:00 22,4 16,8 11 6 NW 1012,9 18 -
18.06.2018 22:00:00 - - - - - - - -
18.06.2018 21:00:00 - - - - - - - -
18.06.2018 20:00:00 24,5 19,1 11 6 N 1011,7 18 0,0
18.06.2018 19:00:00 - - - - - - - -
18.06.2018 18:00:00 - - - - - - - -
18.06.2018 17:00:00 26,1 16,9 21 11 N 1011,4 18 -
18.06.2018 16:00:00 - - - - - - - -
18.06.2018 15:00:00 - - - - - - - -
18.06.2018 14:00:00 26,0 19,9 24 13 N 1011,5 18 0,0
18.06.2018 13:00:00 - - - - - - - -
18.06.2018 12:00:00 - - - - - - - -
18.06.2018 11:00:00 26,6 15,5 16 9 N 1011,8 18 -
18.06.2018 10:00:00 - - - - - - - -
18.06.2018 09:00:00 - - - - - - - -
18.06.2018 08:00:00 23,9 15,7 18 10 NW 1011,2 18 0,0
18.06.2018 07:00:00 - - - - - - - -
18.06.2018 06:00:00 - - - - - - - -
18.06.2018 05:00:00 20,8 16,0 16 9 WNW 1011,0 20 -
18.06.2018 04:00:00 - - - - - - - -
18.06.2018 03:00:00 - - - - - - - -
18.06.2018 02:00:00 21,6 16,4 16 9 WNW 1010,8 20 0,0
18.06.2018 01:00:00 - - - - - - - -
18.06.2018 00:00:00 - - - - - - - -
17.06.2018 23:00:00 21,7 17,6 8 4 W 1012,2 18 -
17.06.2018 22:00:00 - - - - - - - -
17.06.2018 21:00:00 - - - - - - - -
17.06.2018 20:00:00 23,5 17,6 16 9 NNE 1011,4 19 0,0
17.06.2018 19:00:00 - - - - - - - -
17.06.2018 18:00:00 - - - - - - - -
17.06.2018 17:00:00 25,1 19,6 21 11 NNE 1010,7 14 -
17.06.2018 16:00:00 - - - - - - - -
17.06.2018 15:00:00 - - - - - - - -
17.06.2018 14:00:00 26,1 18,0 21 11 N 1011,4 20 0,0
17.06.2018 13:00:00 - - - - - - - -
17.06.2018 12:00:00 - - - - - - - -
17.06.2018 11:00:00 25,4 17,4 22 12 N 1011,5 20 -
17.06.2018 10:00:00 - - - - - - - -
17.06.2018 09:00:00 - - - - - - - -
17.06.2018 08:00:00 23,3 16,1 18 10 WNW 1010,7 20 0,0
17.06.2018 07:00:00 - - - - - - - -
17.06.2018 06:00:00 - - - - - - - -
17.06.2018 05:00:00 20,3 16,0 21 11 WNW 1010,0 20 -
17.06.2018 04:00:00 - - - - - - - -
17.06.2018 03:00:00 - - - - - - - -
17.06.2018 02:00:00 20,5 16,4 16 9 WNW 1010,0 20 0,0
17.06.2018 01:00:00 - - - - - - - -
17.06.2018 00:00:00 - - - - - - - -
16.06.2018 23:00:00 20,9 15,6 11 6 WNW 1010,2 20 -
16.06.2018 22:00:00 - - - - - - - -
16.06.2018 21:00:00 - - - - - - - -
16.06.2018 20:00:00 23,6 18,5 15 8 N 1008,8 15 0,0
16.06.2018 19:00:00 - - - - - - - -
16.06.2018 18:00:00 - - - - - - - -
16.06.2018 17:00:00 24,9 16,4 26 14 N 1008,2 15 -
16.06.2018 16:00:00 - - - - - - - -
16.06.2018 15:00:00 - - - - - - - -
16.06.2018 14:00:00 25,0 17,0 28 15 N 1008,6 13 0,0
16.06.2018 13:00:00 - - - - - - - -
16.06.2018 12:00:00 - - - - - - - -
16.06.2018 11:00:00 24,3 16,5 22 12 N 1008,8 13 -
16.06.2018 10:00:00 - - - - - - - -
16.06.2018 09:00:00 - - - - - - - -
16.06.2018 08:00:00 20,4 16,6 18 10 WNW 1008,5 13 -
16.06.2018 07:00:00 - - - - - - - -
16.06.2018 06:00:00 - - - - - - - -
16.06.2018 05:00:00 19,0 15,5 21 11 WNW 1007,4 18 -
16.06.2018 04:00:00 - - - - - - - -
16.06.2018 03:00:00 - - - - - - - -
16.06.2018 02:00:00 20,1 15,7 21 11 WNW 1007,8 18 0,0
16.06.2018 01:00:00 - - - - - - - -
16.06.2018 00:00:00 - - - - - - - -
15.06.2018 23:00:00 20,2 15,5 16 9 WNW 1008,0 18 -
15.06.2018 22:00:00 - - - - - - - -
15.06.2018 21:00:00 - - - - - - - -
15.06.2018 20:00:00 22,7 15,8 21 11 N 1007,4 18 -
15.06.2018 19:00:00 - - - - - - - -
15.06.2018 18:00:00 - - - - - - - -
15.06.2018 17:00:00 23,4 17,5 22 12 N 1006,9 18 -
15.06.2018 16:00:00 - - - - - - - -
15.06.2018 15:00:00 - - - - - - - -
15.06.2018 14:00:00 18,7 17,8 183 99 N - 5 -
15.06.2018 13:00:00 - - - - - - - -
15.06.2018 12:00:00 - - - - - - - -
15.06.2018 11:00:00 17,6 17,4 15 8 NNW - 15 -
15.06.2018 10:00:00 - - - - - - - -
15.06.2018 09:00:00 - - - - - - - -
15.06.2018 08:00:00 19,8 16,0 24 13 WNW 1005,3 20 -
15.06.2018 07:00:00 - - - - - - - -
15.06.2018 06:00:00 - - - - - - - -
15.06.2018 05:00:00 18,4 15,6 18 10 NW 1005,4 22 -
15.06.2018 04:00:00 - - - - - - - -
15.06.2018 03:00:00 - - - - - - - -
15.06.2018 02:00:00 17,8 14,9 13 7 W 1006,0 22 -
15.06.2018 01:00:00 - - - - - - - -
15.06.2018 00:00:00 - - - - - - - -
14.06.2018 23:00:00 19,4 15,7 11 6 W 1005,7 22 -
14.06.2018 22:00:00 - - - - - - - -
14.06.2018 21:00:00 - - - - - - - -
14.06.2018 20:00:00 22,4 16,7 9 5 NNW 1005,0 22 -
14.06.2018 19:00:00 - - - - - - - -
14.06.2018 18:00:00 - - - - - - - -
14.06.2018 17:00:00 22,9 16,3 9 5 N 1004,8 22 -
14.06.2018 16:00:00 - - - - - - - -
14.06.2018 15:00:00 - - - - - - - -
14.06.2018 14:00:00 22,0 17,9 11 6 NNW 1005,5 22 -
14.06.2018 13:00:00 - - - - - - - -
14.06.2018 12:00:00 - - - - - - - -
14.06.2018 11:00:00 23,9 17,8 13 7 N 1004,7 22 -
14.06.2018 10:00:00 - - - - - - - -
14.06.2018 09:00:00 - - - - - - - -
14.06.2018 08:00:00 20,9 16,6 5 3 NW 1004,6 22 -
14.06.2018 07:00:00 - - - - - - - -
14.06.2018 06:00:00 - - - - - - - -
14.06.2018 05:00:00 19,9 17,8 9 5 WNW 1003,9 22 -
14.06.2018 04:00:00 - - - - - - - -
14.06.2018 03:00:00 - - - - - - - -
14.06.2018 02:00:00 19,6 18,4 8 4 SW 1004,9 22 -
14.06.2018 01:00:00 - - - - - - - -
14.06.2018 00:00:00 - - - - - - - -
13.06.2018 23:00:00 - - - - - - - -
13.06.2018 22:00:00 - - - - - - - -

tt = Température de l'air
td = dewpoint
ff = Vitesse du vent
dd = Direction du vent
ppp = reduced air pressure
vv = visibility
rr = Quantités de précipitations

stations d'obs. à proximité